User: anonymous   Login
Location: Unspecified
(0.0000°N, 0.0000°E)
Time: 01:12:46
(UTC+00:00)
Language:

LQSAT - Orbit

View from above orbital plane
View from above orbital plane
View from above satellite
View from above satellite

Ground track
Ground track

The orbit data is extracted from the following two-line orbital elements,

1 40958U 15057A   21023.73413505 -.00000006  00000-0  66045-5 0  9993
2 40958  97.8248  85.5840 0018651 157.7999 202.4020 14.73152064284933
Epoch (UTC): 23 January 2021 17:37:09
Eccentricity: 0.0018651
inclination: 97.8248°
perigee height: 638 km
apogee height: 664 km
right ascension of ascending node: 85.5840°
argument of perigee: 157.7999°
revolutions per day: 14.73152064
mean anomaly at epoch: 202.4020°
orbit number at epoch: 28493

The dashed part of the orbit path shows where the satellite is in the earth's shadow,  

DLR